When you browse on this site, cookies collect data to enhance your experience and personalize the content and advertising you see.
Visit our Privacy Policy to learn more. By continuing to use the site, you agree to this use of cookies and data.
  • In Hungary
  • List of Countries
  • For 7 days
  • Water Temperature
  • Satellite Maps
  • Weather Map
  • News
  • Weather Widgets
  • user-avatar
    Login

    Hourly Weather Wladikavkaz

    Today, 11 December, Tuesday

    Time Temperature Precipitation Wind Pressure Humidity
    00:00 +6°C° 0 mm 1 mps 701 mmHg 69%
    01:00 +6°C° 0 mm 1 mps 701 mmHg 69%
    02:00 +5°C° 0 mm 1 mps 700 mmHg 70%
    03:00 +5°C° 0 mm 1 mps 700 mmHg 73%
    04:00 +5°C° 0 mm 1 mps 700 mmHg 72%
    05:00 +5°C° 0 mm 1 mps 700 mmHg 71%
    06:00 +5°C° 0 mm 1 mps 700 mmHg 70%
    07:00 +6°C° 0 mm 1 mps 700 mmHg 70%
    08:00 +7°C° 0 mm 1 mps 699 mmHg 70%
    09:00 +7°C° 0 mm 1 mps 699 mmHg 70%
    10:00 +9°C° 0 mm 1 mps 699 mmHg 68%
    11:00 +9°C° 0 mm 2 mps 698 mmHg 65%
    12:00 +10°C° 0 mm 2 mps 698 mmHg 63%
    13:00 +10°C° 0.1 mm 2 mps 697 mmHg 65%
    14:00 +10°C° 0.1 mm 2 mps 697 mmHg 66%
    15:00 +10°C° 0.1 mm 2 mps 697 mmHg 68%
    16:00 +9°C° 0.3 mm 3 mps 697 mmHg 69%
    17:00 +9°C° 0.3 mm 3 mps 697 mmHg 70%
    18:00 +8°C° 0.3 mm 3 mps 697 mmHg 72%
    19:00 +8°C° 0.4 mm 3 mps 697 mmHg 75%
    20:00 +7°C° 0.4 mm 2 mps 697 mmHg 78%
    21:00 +7°C° 0.4 mm 2 mps 697 mmHg 81%
    22:00 +7°C° 0.1 mm 2 mps 698 mmHg 79%
    23:00 +7°C° 0.1 mm 2 mps 698 mmHg 76%

    Tomorrow, 12 December, Wednesday

    Time Temperature Precipitation Wind Pressure Humidity
    00:00 +7°C° 0.1 mm 2 mps 699 mmHg 74%
    01:00 +7°C° 0 mm 2 mps 699 mmHg 73%
    02:00 +7°C° 0 mm 2 mps 700 mmHg 72%
    03:00 +7°C° 0 mm 1 mps 700 mmHg 71%
    04:00 +7°C° 0 mm 1 mps 701 mmHg 70%
    05:00 +7°C° 0 mm 1 mps 701 mmHg 68%
    06:00 +6°C° 0 mm 1 mps 701 mmHg 67%
    07:00 +7°C° 0 mm 1 mps 701 mmHg 64%
    08:00 +7°C° 0 mm 1 mps 701 mmHg 62%
    09:00 +7°C° 0 mm 1 mps 700 mmHg 60%
    10:00 +7°C° 0.1 mm 1 mps 700 mmHg 63%
    11:00 +8°C° 0.1 mm 1 mps 699 mmHg 66%
    12:00 +8°C° 0.1 mm 1 mps 699 mmHg 70%
    13:00 +8°C° 0.8 mm 1 mps 699 mmHg 75%
    14:00 +7°C° 0.8 mm 1 mps 698 mmHg 81%
    15:00 +7°C° 0.8 mm 1 mps 698 mmHg 87%
    16:00 +7°C° 0.7 mm 1 mps 698 mmHg 88%
    17:00 +5°C° 0.7 mm 2 mps 698 mmHg 90%
    18:00 +5°C° 0.7 mm 2 mps 698 mmHg 92%
    19:00 +5°C° 0.4 mm 2 mps 698 mmHg 92%
    20:00 +6°C° 0.4 mm 1 mps 699 mmHg 93%
    21:00 +6°C° 0.4 mm 1 mps 699 mmHg 93%
    22:00 +6°C° 0.4 mm 1 mps 699 mmHg 93%
    23:00 +6°C° 0.4 mm 1 mps 699 mmHg 93%

    Day after tomorrow, 13 December, Thursday

    Time Temperature Precipitation Wind Pressure Humidity
    00:00 +6°C° 0.4 mm 1 mps 699 mmHg 93%
    01:00 +6°C° 0.7 mm 1 mps 699 mmHg 93%
    02:00 +5°C° 0.7 mm 1 mps 699 mmHg 93%
    03:00 +5°C° 0.7 mm 1 mps 699 mmHg 93%
    04:00 +5°C° 0.4 mm 1 mps 699 mmHg 93%
    05:00 +5°C° 0.4 mm 1 mps 699 mmHg 94%
    06:00 +5°C° 0.4 mm 1 mps 699 mmHg 94%
    07:00 +5°C° 0.7 mm 1 mps 700 mmHg 94%
    08:00 +4°C° 0.7 mm 2 mps 700 mmHg 94%
    09:00 +4°C° 0.7 mm 2 mps 701 mmHg 93%
    10:00 +4°C° 0.6 mm 2 mps 701 mmHg 92%
    11:00 +4°C° 0.6 mm 2 mps 702 mmHg 92%
    12:00 +4°C° 0.6 mm 2 mps 702 mmHg 91%
    13:00 +4°C° 0.4 mm 2 mps 702 mmHg 91%
    14:00 +4°C° 0.4 mm 2 mps 703 mmHg 92%
    15:00 +4°C° 0.4 mm 2 mps 703 mmHg 92%
    16:00 +3°C° 0.4 mm 2 mps 704 mmHg 93%
    17:00 +3°C° 0.4 mm 2 mps 705 mmHg 93%
    18:00 +4°C° 0.4 mm 1 mps 705 mmHg 94%
    19:00 +3°C° 0.2 mm 1 mps 706 mmHg 93%
    20:00 +3°C° 0.2 mm 1 mps 706 mmHg 93%
    21:00 +3°C° 0.2 mm 1 mps 707 mmHg 93%
    22:00 +2°C° 0.1 mm 1 mps 707 mmHg 92%
    23:00 +2°C° 0.1 mm 1 mps 707 mmHg 91%

    14 December, Friday

    Time Temperature Precipitation Wind Pressure Humidity
    00:00 +1°C° 0.1 mm 1 mps 707 mmHg 90%
    01:00 +1°C° 0 mm 1 mps 707 mmHg 87%
    02:00 +1°C° 0 mm 1 mps 708 mmHg 84%
    03:00 +1°C° 0 mm 1 mps 708 mmHg 81%
    04:00 +1°C° 0 mm 1 mps 708 mmHg 79%
    05:00 +1°C° 0 mm 1 mps 708 mmHg 78%
    06:00 0°C° 0 mm 1 mps 708 mmHg 77%
    07:00 +1°C° 0 mm 1 mps 708 mmHg 75%
    08:00 +2°C° 0 mm 1 mps 708 mmHg 74%
    09:00 +2°C° 0 mm 1 mps 709 mmHg 73%
    10:00 +3°C° 0 mm 1 mps 708 mmHg 73%
    11:00 +4°C° 0 mm 1 mps 708 mmHg 74%
    12:00 +4°C° 0 mm 2 mps 707 mmHg 75%
    13:00 +3°C° 0 mm 2 mps 707 mmHg 77%
    14:00 +3°C° 0 mm 2 mps 707 mmHg 79%
    15:00 +3°C° 0 mm 2 mps 707 mmHg 81%
    16:00 +3°C° 0 mm 1 mps 708 mmHg 83%
    17:00 +2°C° 0 mm 1 mps 708 mmHg 85%
    18:00 +2°C° 0 mm 1 mps 708 mmHg 87%
    19:00 +1°C° 0.1 mm 0 mps 708 mmHg 87%
    20:00 +1°C° 0.1 mm 0 mps 708 mmHg 86%
    21:00 +1°C° 0.1 mm 0 mps 708 mmHg 86%
    22:00 0°C° 0 mm 0 mps 708 mmHg 86%
    23:00 +1°C° 0 mm 1 mps 709 mmHg 86%

    15 December, Saturday

    Time Temperature Precipitation Wind Pressure Humidity
    00:00 +1°C° 0 mm 1 mps 709 mmHg 86%
    01:00 +1°C° 0 mm 1 mps 709 mmHg 83%
    02:00 +1°C° 0 mm 1 mps 709 mmHg 81%
    03:00 +1°C° 0 mm 1 mps 709 mmHg 78%
    04:00 0°C° 0 mm 1 mps 709 mmHg 76%
    05:00 -2°C° 0 mm 2 mps 709 mmHg 75%
    06:00 -2°C° 0 mm 2 mps 710 mmHg 73%
    07:00 +1°C° 0 mm 1 mps 710 mmHg 71%
    08:00 +2°C° 0 mm 1 mps 710 mmHg 69%
    09:00 +2°C° 0 mm 1 mps 710 mmHg 68%
    10:00 +3°C° 0 mm 1 mps 710 mmHg 67%
    11:00 +5°C° 0 mm 1 mps 710 mmHg 66%
    12:00 +6°C° 0 mm 1 mps 710 mmHg 65%
    13:00 +5°C° 0 mm 1 mps 710 mmHg 67%
    14:00 +5°C° 0 mm 1 mps 710 mmHg 69%
    15:00 +5°C° 0 mm 1 mps 710 mmHg 72%
    16:00 +4°C° 0 mm 1 mps 711 mmHg 74%
    17:00 +3°C° 0 mm 1 mps 711 mmHg 76%
    18:00 +2°C° 0 mm 1 mps 711 mmHg 78%
    19:00 +2°C° 0 mm 1 mps 711 mmHg 75%
    20:00 +1°C° 0 mm 1 mps 712 mmHg 72%
    21:00 +1°C° 0 mm 1 mps 712 mmHg 69%
    22:00 +1°C° 0 mm 1 mps 712 mmHg 67%
    23:00 +1°C° 0 mm 1 mps 712 mmHg 65%

    16 December, Sunday

    Time Temperature Precipitation Wind Pressure Humidity
    00:00 +1°C° 0 mm 1 mps 712 mmHg 63%
    01:00 +1°C° 0 mm 1 mps 712 mmHg 62%
    02:00 +1°C° 0 mm 1 mps 711 mmHg 61%
    03:00 +1°C° 0 mm 1 mps 711 mmHg 60%
    04:00 +1°C° 0 mm 1 mps 711 mmHg 60%
    05:00 +1°C° 0 mm 1 mps 711 mmHg 60%
    06:00 +1°C° 0 mm 1 mps 711 mmHg 61%
    07:00 +2°C° 0 mm 1 mps 711 mmHg 61%
    08:00 +3°C° 0 mm 1 mps 711 mmHg 61%
    09:00 +3°C° 0 mm 1 mps 711 mmHg 61%
    10:00 +4°C° 0 mm 1 mps 711 mmHg 62%
    11:00 +4°C° 0 mm 2 mps 711 mmHg 62%
    12:00 +5°C° 0 mm 2 mps 710 mmHg 63%
    13:00 +5°C° 0 mm 2 mps 710 mmHg 67%
    14:00 +5°C° 0 mm 2 mps 710 mmHg 70%
    15:00 +4°C° 0 mm 2 mps 709 mmHg 74%
    16:00 +4°C° 0 mm 2 mps 710 mmHg 75%
    17:00 +3°C° 0 mm 2 mps 710 mmHg 76%
    18:00 +3°C° 0 mm 1 mps 710 mmHg 78%
    19:00 +3°C° 0 mm 1 mps 710 mmHg 78%
    20:00 +3°C° 0 mm 1 mps 710 mmHg 79%
    21:00 +3°C° 0 mm 1 mps 710 mmHg 79%
    22:00 +3°C° 0 mm 1 mps 710 mmHg 80%
    23:00 +3°C° 0 mm 1 mps 710 mmHg 81%
    Show more